sat.trackr.live / text

‹ back to catalog

STARLINK-33820

NORAD 63584 · 2025-076R

PAYLOAD ACTIVE UNKNOWN

§ Identity

Operator
Country
US
Launch date
2025-04-14
Launch site
AFETR
Launch vehicle
Mass (kg)
RCS (m²)

Purposes: comms

External: N2YO · Heavens-Above · Gunter

§ Orbital elements

Epoch: 2026-09-20T18:57:59.333184Z

Period
94.27 min
Inclination
42.9998°
Eccentricity
0.0001924
Mean motion
15.27593286 rev/d
Perigee alt
481.7 km
Apogee alt
484.3 km
Semi-major
6,861.1 km
B*
5.6359e-4
RAAN
299.4211°
Arg perigee
274.5640°
Mean anomaly
85.4992°
Rev number
8,167

§ Raw data

STARLINK-338201 63584U 25076R   26263.79027006  .00015285  00000+0  56359-3 0  99972 63584  42.9998 299.4211 0001924 274.5640  85.4992 15.27593286 81678

JSON: /api/v1/satellites/63584 · /tle

For live sub-satellite position, see the globe view (requires WebGL).

§ Visibility from observer

Set your observer location to see the next 7 days of passes ≥ 10°. The values pass through the URL so the page stays shareable.

No JS? Fill the form by hand. The geolocation button needs JavaScript.